Wind_Speed
27 27 27 28 29 29 30 30 31 32 32 33 33 34 34 35 36 37 37 37 38 39 40 40 40 40 40 41 42 43 44 44 45 45 45 43 42 42 42 42 42 41 41
25 26 26 28 28 29 30 30 31 32 33 34 34 34 35 36 37 38 38 39 39 40 40 41 41 42 41 42 42 43 44 45 46 46 46 46 44 44 44 43 43 43 42
25 25 26 27 28 29 30 31 32 33 34 35 36 36 36 36 37 38 38 38 39 39 41 42 42 43 43 43 43 43 44 46 46 47 48 47 45 45 45 45 44 44 43
26 27 27 28 28 29 30 32 33 34 35 36 36 36 36 37 37 37 37 38 39 39 40 41 42 42 43 43 43 44 44 45 46 47 48 48 47 46 46 46 46 45 44
27 27 28 29 30 31 32 33 34 35 36 37 37 38 38 38 38 38 38 38 39 39 39 40 40 40 41 42 42 43 45 45 45 46 47 47 47 47 46 46 46 47 46
27 28 29 30 31 32 33 34 35 36 37 37 38 38 39 39 39 39 39 39 39 40 40 40 40 41 41 41 42 43 44 45 45 46 46 47 47 48 47 46 46 47 47
28 28 30 31 32 32 34 35 36 36 37 38 38 38 39 39 39 39 39 39 39 39 39 40 40 40 41 41 42 42 42 43 45 46 46 47 48 48 48 48 47 47 47
29 30 31 32 33 34 35 35 36 36 37 38 39 39 39 39 39 39 39 39 39 39 39 39 40 41 41 42 42 42 42 42 44 45 46 47 48 49 48 48 48 47 47
31 32 33 33 34 34 35 35 36 36 37 38 38 39 39 39 39 39 39 38 38 39 39 40 41 41 41 42 43 42 43 44 45 45 46 47 47 48 49 49 50 50 50
31 32 33 34 34 34 35 35 36 36 37 37 37 38 38 38 37 38 38 38 38 38 39 40 40 41 41 42 42 43 43 44 46 46 46 46 47 48 48 49 50 51 52
30 31 32 33 34 35 35 36 36 36 37 37 37 37 37 38 38 38 37 37 37 38 38 39 40 40 40 40 41 42 44 43 44 45 45 45 46 47 47 48 49 50 51
30 31 31 32 33 34 35 36 37 37 37 37 37 36 37 37 37 37 37 37 37 37 37 38 39 39 39 39 40 41 41 41 42 43 43 44 45 45 46 47 47 49 50
29 31 32 33 34 34 35 35 36 36 37 37 37 36 36 36 36 36 36 36 36 35 36 36 37 37 36 36 36 36 36 37 39 40 41 42 43 44 45 45 46 47 48
30 31 32 33 34 35 35 36 36 36 36 36 37 36 36 36 36 35 35 35 34 34 34 33 33 33 33 33 33 34 35 36 37 38 38 40 41 43 45 46 46 46 46
32 33 33 34 34 35 35 36 36 36 37 37 37 36 36 35 34 34 34 33 33 32 32 31 31 32 32 33 34 35 36 37 37 37 38 39 41 42 43 43 43 44 45
34 34 35 35 35 35 36 35 36 36 36 36 36 36 35 34 33 33 33 32 32 32 32 32 31 31 32 34 35 35 36 36 36 36 37 38 39 40 41 42 42 43 43
35 35 36 35 36 36 35 35 35 36 35 35 35 35 34 34 34 33 32 32 32 32 32 32 32 32 33 34 35 35 34 35 35 36 37 37 38 39 40 41 42 43 43
35 36 35 35 35 35 35 35 36 36 35 35 34 33 33 33 33 33 32 32 32 31 32 32 32 32 32 33 33 34 34 34 35 36 37 37 37 38 39 40 41 41 42
34 35 35 35 35 35 35 35 35 35 35 34 33 32 32 32 32 31 31 31 30 30 30 30 30 31 31 31 31 32 32 33 34 34 34 35 36 36 37 38 38 38 39
35 34 34 35 35 35 35 34 34 34 34 33 32 31 31 31 30 30 29 29 29 29 29 29 29 30 30 30 30 31 31 31 31 31 32 33 33 34 35 35 35 36 37
35 35 34 34 34 33 33 32 32 32 32 31 31 30 30 30 30 29 29 28 28 28 28 28 29 29 29 30 30 30 30 30 30 30 31 31 31 32 32 33 34 34 35
36 35 35 34 33 32 32 31 31 31 31 31 30 29 28 28 28 28 29 28 28 28 28 27 28 29 29 29 29 29 29 30 30 30 30 30 31 31 32 32 33 33 34
36 35 34 34 32 32 31 31 31 31 31 30 29 28 28 27 26 26 27 27 28 28 28 28 27 27 28 28 27 28 28 28 29 30 30 30 30 30 31 32 33 33 34
36 35 35 34 32 31 31 31 31 31 30 29 28 28 28 27 26 27 27 27 27 28 28 28 28 27 27 27 28 28 28 28 29 30 30 30 30 30 31 32 33 34 36
36 36 35 34 33 32 32 32 31 31 30 29 28 28 27 27 27 27 26 27 27 28 28 28 29 28 28 28 28 28 29 29 30 30 30 30 30 31 31 33 34 35 36
37 36 35 35 34 32 32 32 31 31 30 29 28 28 28 27 27 27 27 27 28 28 28 28 29 30 30 30 30 30 30 30 31 31 31 32 32 32 33 33 34 36 37
Wind_Direction
250 251 253 254 256 258 258 259 261 263 264 266 267 268 268 269 269 268 268 267 265 264 264 263 264 265 265 265 263 261 260 260 258 257 257 259 261 261 261 261 261 260 260
251 253 255 256 258 260 261 263 265 266 267 269 271 272 272 272 272 272 272 270 267 267 266 265 265 265 265 265 264 262 261 260 259 258 258 258 259 259 259 261 261 260 261
252 255 257 258 260 263 265 266 268 270 271 272 273 275 275 275 274 274 274 273 270 270 269 267 268 268 267 266 265 264 262 261 259 258 258 258 258 260 259 260 261 260 261
256 257 259 261 263 265 267 269 271 272 274 274 275 276 277 277 276 276 275 275 273 273 272 270 269 268 268 267 266 265 263 261 260 259 258 258 259 260 259 259 260 260 260
259 260 261 263 265 267 269 271 272 274 276 277 277 278 278 278 277 276 275 274 274 273 273 271 269 268 268 268 267 266 264 262 261 260 258 258 257 259 260 259 259 260 260
261 262 264 266 267 269 271 272 273 275 276 278 279 279 279 278 277 277 275 274 274 273 272 271 269 268 268 268 267 267 265 263 261 260 259 258 257 258 260 260 260 259 260
264 265 266 268 270 271 273 273 275 276 277 278 279 280 280 280 278 277 277 276 275 274 273 272 270 269 267 268 268 266 264 263 261 260 260 259 258 257 259 259 260 260 260
266 267 268 270 272 273 274 274 275 277 278 279 280 280 281 281 280 279 279 278 275 274 273 272 271 270 268 268 268 267 265 264 263 262 261 260 259 258 258 259 260 260 261
267 269 270 272 274 275 275 276 277 278 279 280 281 281 282 282 281 280 279 279 278 276 275 273 271 270 270 270 268 266 265 264 263 263 262 261 261 260 260 260 261 261 261
270 270 271 273 274 275 276 277 278 279 281 281 282 282 282 282 282 281 280 280 280 278 276 274 272 271 270 270 269 267 266 266 264 263 262 261 261 261 261 261 261 261 263
272 273 274 274 275 276 277 278 279 280 281 282 283 283 283 282 282 281 280 280 280 279 278 275 273 272 272 271 269 268 267 266 264 263 261 261 262 261 261 261 262 262 263
275 276 277 277 277 278 278 279 279 280 282 283 284 284 284 284 283 282 281 281 281 281 279 276 274 273 272 271 271 270 269 266 264 263 261 261 262 261 261 261 263 263 263
278 279 280 280 280 280 280 281 282 282 281 282 283 284 284 284 283 283 282 282 282 282 280 279 276 274 273 273 272 270 269 267 265 264 263 263 263 261 262 263 264 264 264
281 281 280 280 281 281 281 281 282 283 282 282 282 283 283 284 283 283 283 283 282 281 281 280 277 274 273 273 272 272 270 269 268 266 265 264 265 264 263 263 264 264 264
282 281 281 282 282 281 281 281 282 282 282 282 282 282 282 282 282 283 283 283 283 282 281 279 277 275 274 274 273 272 270 269 269 267 267 267 267 266 265 264 265 265 265
282 283 283 283 282 282 282 282 282 283 283 283 283 282 281 281 281 282 282 282 284 283 281 279 277 275 275 275 275 274 271 270 270 269 269 269 268 267 266 266 266 266 266
284 284 284 284 283 282 282 283 283 284 285 285 285 283 280 280 281 282 281 281 283 282 281 280 278 276 276 277 278 277 275 273 272 271 270 269 269 269 268 267 267 267 266
285 285 285 284 284 283 283 283 284 285 285 285 284 282 281 280 279 280 281 281 282 282 282 281 279 278 278 278 278 278 277 276 275 274 272 271 271 270 269 269 268 268 268
287 287 286 285 285 284 283 284 284 284 284 284 283 283 282 280 278 279 280 281 282 283 284 284 282 280 280 280 280 279 279 278 277 275 273 272 272 271 271 271 271 271 271
287 288 287 286 286 285 284 284 284 284 284 283 282 283 282 279 278 278 279 280 281 283 284 284 283 282 281 282 282 282 280 279 277 277 275 274 273 273 273 272 272 272 272
287 287 288 287 287 286 285 284 285 285 285 284 283 282 281 280 279 278 278 279 281 284 286 285 285 284 284 285 285 283 281 278 278 278 277 276 276 276 275 274 274 274 274
286 287 287 287 286 285 285 284 284 285 285 285 284 283 281 280 280 279 277 278 281 284 286 286 286 285 285 285 285 284 282 280 279 278 277 277 277 277 277 277 277 276 277
285 286 286 286 285 284 284 284 284 285 285 284 283 282 280 279 280 281 279 279 281 283 286 287 287 287 286 286 286 286 284 282 281 280 280 279 279 279 279 279 279 279 279
285 285 284 284 284 284 283 283 284 284 283 282 281 282 281 279 280 280 279 280 281 283 285 285 286 287 287 286 286 285 285 285 284 283 281 281 280 279 280 281 282 282 282
283 282 281 282 282 283 282 283 283 283 282 281 280 281 280 280 281 282 281 281 282 284 284 285 285 285 286 287 287 285 285 285 284 283 282 282 281 281 282 283 284 285 285
282 281 280 281 282 282 282 281 282 282 280 279 279 280 280 280 282 282 282 281 281 283 285 285 285 284 285 286 286 285 285 285 284 282 282 282 283 283 284 286 286 286 286
Height
5741 5743 5744 5746 5747 5748 5749 5750 5750 5751 5751 5751 5751 5751 5751 5751 5750 5750 5750 5751 5751 5752 5753 5754 5755 5755 5756 5756 5757 5758 5760 5762 5764 5766 5768 5770 5772 5774 5775 5777 5779 5781 5782
5736 5738 5739 5740 5741 5742 5743 5743 5744 5744 5744 5744 5744 5743 5743 5743 5742 5742 5741 5741 5741 5742 5743 5744 5745 5745 5746 5746 5747 5748 5750 5752 5753 5756 5757 5760 5763 5764 5766 5767 5769 5771 5773
5731 5732 5733 5734 5735 5736 5736 5737 5737 5737 5737 5736 5736 5735 5735 5734 5734 5733 5732 5731 5731 5732 5732 5733 5734 5734 5735 5736 5737 5737 5739 5741 5743 5744 5747 5749 5752 5755 5756 5758 5759 5761 5763
5726 5727 5728 5729 5729 5730 5730 5730 5730 5729 5729 5728 5727 5727 5726 5726 5725 5724 5723 5722 5722 5722 5722 5723 5724 5724 5725 5725 5726 5727 5728 5730 5732 5733 5735 5738 5741 5743 5745 5747 5749 5750 5752
5720 5721 5722 5722 5723 5723 5723 5722 5722 5721 5721 5720 5719 5718 5717 5716 5715 5714 5714 5713 5713 5712 5712 5713 5713 5714 5714 5715 5716 5716 5717 5718 5720 5722 5724 5726 5729 5730 5733 5736 5738 5739 5741
5714 5715 5715 5716 5716 5716 5715 5715 5714 5713 5712 5711 5710 5709 5708 5707 5706 5705 5704 5703 5703 5703 5702 5703 5703 5704 5704 5705 5705 5705 5706 5707 5709 5710 5712 5715 5717 5719 5721 5724 5726 5728 5730
5708 5708 5709 5709 5708 5708 5708 5707 5706 5705 5704 5703 5701 5700 5698 5697 5696 5695 5694 5693 5693 5692 5692 5692 5693 5693 5694 5694 5694 5694 5695 5696 5697 5699 5701 5703 5705 5707 5709 5711 5713 5715 5717
5702 5702 5701 5701 5701 5700 5700 5699 5698 5697 5696 5694 5693 5691 5689 5687 5686 5684 5684 5683 5682 5682 5682 5682 5682 5682 5682 5682 5683 5683 5684 5685 5686 5687 5689 5691 5693 5694 5696 5698 5700 5702 5705
5694 5694 5694 5694 5693 5692 5691 5690 5689 5688 5687 5685 5683 5682 5680 5678 5676 5675 5674 5673 5672 5672 5671 5671 5671 5671 5671 5671 5671 5672 5672 5673 5674 5675 5677 5678 5680 5682 5684 5686 5687 5690 5692
5687 5687 5686 5686 5685 5684 5683 5682 5681 5679 5678 5676 5674 5672 5670 5668 5667 5665 5664 5663 5662 5661 5661 5661 5660 5660 5660 5659 5659 5660 5661 5661 5662 5663 5665 5666 5668 5670 5671 5673 5674 5676 5678
5679 5679 5678 5677 5676 5675 5674 5673 5672 5670 5669 5667 5665 5663 5661 5659 5658 5656 5655 5654 5652 5651 5650 5649 5649 5649 5648 5648 5647 5647 5648 5648 5649 5651 5652 5654 5656 5657 5659 5660 5661 5662 5664
5672 5671 5670 5669 5668 5666 5665 5664 5662 5661 5659 5658 5656 5654 5652 5650 5648 5646 5645 5644 5642 5641 5639 5638 5637 5636 5636 5636 5635 5635 5635 5636 5637 5638 5640 5642 5643 5644 5646 5647 5648 5649 5650
5664 5663 5662 5660 5659 5657 5656 5654 5653 5651 5650 5648 5646 5644 5642 5640 5639 5637 5635 5633 5632 5630 5628 5627 5626 5625 5624 5624 5624 5624 5624 5625 5625 5626 5628 5629 5630 5632 5633 5634 5634 5635 5637
5656 5654 5653 5651 5650 5648 5646 5645 5643 5641 5639 5638 5636 5634 5632 5630 5629 5627 5625 5623 5622 5620 5618 5616 5615 5615 5614 5614 5614 5614 5614 5614 5615 5615 5616 5617 5618 5619 5620 5621 5622 5623 5623
5647 5646 5644 5642 5640 5638 5637 5635 5633 5631 5629 5628 5626 5624 5622 5620 5618 5617 5615 5613 5612 5610 5609 5607 5606 5605 5605 5604 5604 5604 5604 5604 5604 5604 5605 5605 5606 5606 5607 5608 5609 5609 5610
5638 5637 5635 5633 5631 5629 5627 5625 5623 5621 5619 5617 5615 5613 5612 5610 5608 5607 5605 5604 5603 5601 5599 5598 5596 5595 5595 5594 5594 5593 5593 5593 5593 5594 5594 5594 5594 5594 5594 5595 5596 5596 5597
5629 5627 5625 5623 5621 5619 5617 5615 5613 5611 5609 5607 5605 5603 5601 5600 5599 5597 5596 5595 5593 5591 5590 5588 5587 5586 5585 5584 5583 5583 5582 5582 5582 5582 5582 5583 5582 5582 5582 5582 5583 5583 5583
5620 5618 5616 5614 5612 5609 5607 5605 5603 5601 5599 5597 5595 5593 5592 5591 5589 5588 5587 5585 5584 5582 5580 5578 5577 5576 5575 5574 5573 5572 5572 5572 5571 5571 5571 5571 5571 5570 5570 5570 5570 5570 5570
5610 5608 5606 5604 5602 5599 5597 5595 5593 5591 5589 5587 5585 5584 5582 5581 5580 5579 5577 5576 5575 5573 5571 5569 5567 5566 5565 5564 5563 5562 5562 5561 5561 5560 5559 5559 5559 5559 5558 5558 5558 5558 5557
5600 5598 5596 5594 5592 5589 5587 5585 5583 5581 5579 5577 5576 5574 5573 5572 5571 5570 5568 5567 5566 5564 5562 5560 5559 5557 5556 5555 5554 5553 5552 5552 5551 5550 5549 5548 5548 5547 5547 5547 5547 5546 5546
5590 5588 5586 5584 5582 5579 5577 5576 5574 5572 5570 5568 5567 5565 5564 5562 5561 5560 5559 5558 5557 5556 5554 5552 5550 5549 5547 5546 5545 5543 5542 5541 5541 5540 5539 5538 5537 5537 5536 5536 5536 5535 5535
5580 5578 5576 5574 5572 5570 5568 5566 5565 5563 5561 5559 5558 5556 5555 5553 5552 5551 5550 5550 5548 5547 5545 5543 5542 5540 5538 5537 5536 5534 5532 5531 5531 5530 5529 5529 5528 5527 5526 5526 5525 5524 5523
5570 5568 5566 5564 5563 5560 5559 5557 5555 5553 5552 5550 5549 5548 5546 5545 5544 5543 5542 5541 5540 5539 5537 5535 5533 5532 5530 5528 5527 5525 5523 5522 5522 5521 5520 5519 5518 5517 5517 5516 5515 5514 5513
5560 5558 5556 5555 5553 5551 5549 5548 5546 5544 5543 5542 5540 5539 5538 5537 5535 5534 5533 5532 5531 5530 5528 5527 5525 5523 5522 5520 5518 5517 5515 5514 5513 5512 5511 5510 5509 5508 5507 5506 5505 5503 5502
5550 5548 5546 5545 5543 5541 5540 5538 5537 5535 5534 5533 5532 5530 5529 5528 5527 5526 5525 5524 5522 5521 5520 5518 5517 5515 5513 5512 5510 5508 5507 5505 5504 5503 5502 5501 5499 5498 5497 5496 5494 5492 5491
5539 5537 5536 5534 5533 5532 5530 5529 5528 5526 5525 5524 5523 5522 5521 5520 5519 5518 5516 5515 5514 5512 5511 5509 5508 5506 5504 5502 5501 5499 5497 5496 5494 5493 5492 5491 5489 5488 5487 5485 5483 5481 5479